[[{"header":{"parameterUnit":"m.s-1","parameterCategory":1,"la1":30.2991,"la2":30.254,"lo1":-89.0895,"lo2":-89.0444,"dy":0.0017,"dx":0.0017,"nx":28,"ny":28,"refTime":"2024-04-10T21:00:00:Z","depth":0,"parameterNumber":2,"parameterNumberName":"U-component_of_WINDS"},"data":[0,0,0,0,0,0,0,0,0,0,0,0,0,0,0,0,0,0,0,0,0,0,0,0,0,0,0,0,0,0,0,0,0,0,0,0,0,0,0,0,0,0,0,0,0,0,0,0,0,0,0,0,0,0,0,0,0,0,4.0928,4.093,0,4.1087,4.1089,4.109,4.1056,4.1053,4.105,4.1047,4.1216,4.1223,4.123,0,0,0,0,0,0,0,0,0,0,0,0,0,4.0601,4.0607,4.0928,4.093,4.0932,4.1086,4.1089,4.1091,4.1056,4.1053,4.1049,4.1046,4.1213,4.1222,4.1231,0,0,0,0,0,0,0,0,0,0,0,0,0,4.075,4.0609,4.0927,4.0933,4.0935,4.1086,4.1089,4.1091,4.1057,4.1053,4.1048,4.1044,4.1211,4.1221,4.1232,4.1389,0,0,4.1265,4.127,0,0,0,0,0,0,0,0,4.0741,4.0762,4.093,4.0933,4.0935,4.1047,4.1035,4.1191,4.1058,4.1011,4.1047,4.1042,4.1164,4.1178,4.1218,4.1397,4.1404,4.1266,4.1273,4.1278,4.1281,0,0,0,0,0,0,0,4.0731,4.0755,4.0991,4.0933,4.0936,4.093,4.0946,4.1065,4.1111,4.1015,4.1013,4.1032,4.1164,4.1207,4.1222,4.1406,4.1266,4.1276,4.1282,4.1287,4.1724,4.1729,0,0,0,0,0,0,4.0718,4.0746,4.0986,4.0996,4.0825,4.0939,4.0957,4.1016,4.1109,4.1119,4.1035,4.1029,4.1191,4.1209,4.1227,4.1419,4.1277,4.1288,4.1294,4.1719,4.1725,4.1731,0,0,0,0,0,0,4.0711,4.0739,4.0979,4.087,4.09,4.0949,4.1015,4.1021,4.1064,4.1125,4.1133,4.1071,4.1188,4.1212,4.1349,4.1424,4.1293,4.1303,4.1713,4.1721,4.1728,4.1801,0,0,0,0,0,0,4.0701,4.0737,4.0796,4.0872,4.0906,4.1097,4.102,4.1028,4.1082,4.1076,4.116,4.117,4.1186,4.1333,4.136,4.1436,4.1311,4.1707,4.1716,4.1725,4.1792,4.181,4.1826,0,0,0,0,0,4.069,4.0811,4.0799,4.0828,4.098,4.1101,4.1121,4.1136,4.1089,4.1149,4.1188,4.1167,4.1411,4.1347,4.1377,4.1458,4.1702,4.1714,4.1725,4.1785,4.1807,4.1825,0,0,0,0,0,0,4.0744,4.0821,4.0808,4.0957,4.1023,4.1095,4.1171,4.1159,4.124,4.1231,4.1248,4.1268,4.1407,4.1446,4.1374,4.1616,4.155,4.1568,4.1585,4.1607,4.1623,4.1612,4.132,0,0,0,0,0,4.0773,4.0862,4.0925,4.1051,4.1084,4.1122,4.1175,4.1181,4.125,4.1279,4.1327,4.1397,4.1489,4.155,4.1638,4.1797,4.1816,4.1868,4.1885,4.1898,4.1914,4.2003,4.2027,4.1768,4.1768,4.1768,0,0,4.0835,4.0888,4.0943,4.1063,4.1115,4.1209,4.1146,4.1248,4.1319,4.1295,4.1427,4.1465,4.1544,4.1693,4.1761,4.173,4.199,4.1913,4.1923,4.1932,4.2017,4.2042,4.2063,4.1776,4.1774,4.1773,0,0,4.0995,4.1043,4.1153,4.1206,4.1284,4.1308,4.1335,4.1409,4.1433,4.1565,4.1549,4.1635,4.1793,4.1851,4.19,4.2083,4.2068,4.2111,4.2199,4.2286,4.2306,4.2324,4.2391,4.2414,4.2127,4.2127,4.2127,0,4.1062,4.1201,4.1212,4.1316,4.1371,4.1351,4.1464,4.1515,4.1619,4.1657,4.162,4.1819,4.1871,4.2034,4.2078,4.2119,4.2151,4.2102,4.2302,4.232,4.2337,4.2401,4.2426,4.2132,4.2131,4.2131,4.213,0,4.1281,4.1378,4.1458,4.1557,4.162,4.1728,4.1758,4.1821,4.1821,4.185,4.1986,4.2047,4.2148,4.2187,4.2189,4.2351,4.2329,4.2297,4.2231,4.2367,4.2427,4.2452,4.2139,4.2137,4.2136,4.2134,0,0,4.1481,4.1584,4.1613,4.1658,4.1743,4.1819,4.1927,4.2024,4.2078,4.215,4.2243,4.2377,4.2348,4.2405,4.2413,4.2489,4.2631,4.2447,4.245,4.2481,4.2815,4.284,4.2868,4.2621,4.2625,4.2629,4.2809,0,4.165,4.1838,4.1852,4.2023,4.2114,4.2096,4.2191,4.2254,4.2284,4.2367,4.2401,4.2497,4.245,4.2484,4.2558,4.2598,4.2699,4.2585,4.2709,4.2714,4.2691,4.2899,4.2926,4.3092,4.2833,4.2837,4.2839,0,4.1873,4.195,4.213,4.2202,4.224,4.2325,4.2415,4.2494,4.2566,4.2583,4.2646,4.2644,4.2757,4.2686,4.2844,4.2766,4.2818,4.2845,4.2852,4.2866,4.2786,4.292,4.3146,4.3171,4.2876,4.2873,4.2871,0,4.2003,4.2152,4.2278,4.2317,4.2404,4.2464,4.2504,4.2571,4.2628,4.2708,4.2746,4.2838,4.2889,4.2962,4.2986,4.2932,4.3143,4.3074,4.3162,4.3162,4.3209,4.3206,4.3448,4.324,4.3239,4.3239,4.3238,0,4.2191,4.2302,4.2338,4.2416,4.2541,4.2555,4.2679,4.2715,4.2775,4.2862,4.2853,4.2935,4.2961,4.3048,4.3067,4.3196,4.3219,4.3237,4.3241,4.3239,4.3237,4.3274,4.3264,4.3246,4.3244,4.3243,4.3242,0,4.2358,4.2386,4.2523,4.2594,4.2614,4.2703,4.2764,4.2841,4.2869,4.2979,4.3006,4.3051,4.3153,4.3184,4.3307,4.332,4.3471,4.3464,4.3447,4.3447,4.3535,4.3527,4.381,4.3849,4.3614,4.3616,4.3618,0,4.2477,4.2562,4.2641,4.2697,4.2738,4.2829,4.2888,4.2906,4.2968,4.3056,4.3123,4.3223,4.3304,4.3468,4.3514,4.3609,4.3605,4.3698,4.3619,4.3614,4.3608,4.3604,4.3613,4.3713,4.3716,4.3718,4.3719,0,4.2686,4.2695,4.2778,4.2867,4.2936,4.3008,4.3076,4.3124,4.3152,4.3222,4.3325,4.3388,4.3513,4.3614,4.371,4.3753,4.3743,4.3743,4.3769,4.3768,4.3755,4.3765,4.3489,4.3737,4.3735,4.3734,4.3733,4.3732,4.2834,4.2908,4.2976,4.3069,4.3122,4.3186,4.3262,4.3299,4.3384,4.3486,4.3492,4.3605,4.3676,4.3804,4.3852,4.3941,4.3914,4.3951,4.3961,4.397,4.3978,4.3739,4.3959,4.3958,4.3958,4.3957,4.3957,0,4.3044,4.3086,4.3171,4.3266,4.3341,4.3321,4.3396,4.346,4.3558,4.3624,4.3704,4.3823,4.3921,4.3974,4.4071,4.4133,4.4131,4.4158,4.4155,4.4165,4.3996,4.3964,4.4159,4.4159,4.4159,4.4158,4.4158,4.4158,4.3161,4.3287,4.3305,4.3458,4.35,4.3608,4.3653,4.3713,4.3766,4.3899,4.3979,4.4011,4.4073,4.4175,4.4265,4.4278,4.4315,4.4346,4.4356,4.4198,4.4177,4.4157,4.4128,4.4353,4.4354,4.4519,4.452,4.4521]},{"header":{"parameterUnit":"m.s-1","parameterCategory":1,"la1":30.2991,"la2":30.254,"lo1":-89.0895,"lo2":-89.0444,"dy":0.0017,"dx":0.0017,"nx":28,"ny":28,"refTime":"2024-04-10T21:00:00:Z","depth":0,"parameterNumber":3,"parameterNumberName":"V-component_of_WINDS"},"data":[0,0,0,0,0,0,0,0,0,0,0,0,0,0,0,0,0,0,0,0,0,0,0,0,0,0,0,0,0,0,0,0,0,0,0,0,0,0,0,0,0,0,0,0,0,0,0,0,0,0,0,0,0,0,0,0,0,0,-2.5222,-2.5222,0,-2.5249,-2.5249,-2.5249,-2.5216,-2.5215,-2.5214,-2.5213,-2.5241,-2.5243,-2.5245,0,0,0,0,0,0,0,0,0,0,0,0,0,-2.5143,-2.5144,-2.5222,-2.5222,-2.5222,-2.5249,-2.5249,-2.5249,-2.5216,-2.5215,-2.5214,-2.5212,-2.524,-2.5243,-2.5245,0,0,0,0,0,0,0,0,0,0,0,0,0,-2.5174,-2.5145,-2.5222,-2.5209,-2.5208,-2.5249,-2.5249,-2.5249,-2.5217,-2.5215,-2.5213,-2.5211,-2.524,-2.5242,-2.5245,-2.5299,0,0,-2.5254,-2.5255,0,0,0,0,0,0,0,0,-2.5172,-2.5177,-2.5211,-2.521,-2.5209,-2.5227,-2.5231,-2.5266,-2.5217,-2.5214,-2.5213,-2.5211,-2.5238,-2.5241,-2.525,-2.53,-2.5302,-2.5254,-2.5256,-2.5257,-2.5258,0,0,0,0,0,0,0,-2.517,-2.5176,-2.5232,-2.5211,-2.521,-2.5202,-2.5205,-2.5238,-2.5236,-2.5214,-2.5211,-2.5215,-2.5237,-2.5247,-2.525,-2.5302,-2.5254,-2.5256,-2.5258,-2.5259,-2.5398,-2.54,0,0,0,0,0,0,-2.5169,-2.5174,-2.5231,-2.5233,-2.5186,-2.5205,-2.5208,-2.5223,-2.5235,-2.5235,-2.5217,-2.5213,-2.5243,-2.5247,-2.5251,-2.5315,-2.5257,-2.526,-2.5261,-2.5396,-2.5399,-2.5401,0,0,0,0,0,0,-2.5168,-2.5175,-2.523,-2.5203,-2.5209,-2.5209,-2.5226,-2.5225,-2.5235,-2.5237,-2.5237,-2.5227,-2.5242,-2.5247,-2.5287,-2.5315,-2.5261,-2.5263,-2.5394,-2.5397,-2.54,-2.5443,0,0,0,0,0,0,-2.5166,-2.5174,-2.5195,-2.5204,-2.5211,-2.5266,-2.5228,-2.5227,-2.524,-2.5236,-2.5247,-2.5247,-2.5241,-2.5283,-2.529,-2.5318,-2.5266,-2.5391,-2.5395,-2.5399,-2.5439,-2.5447,-2.5454,0,0,0,0,0,-2.5163,-2.5206,-2.5196,-2.5203,-2.5236,-2.5268,-2.5272,-2.5264,-2.5242,-2.5263,-2.5264,-2.5247,-2.5311,-2.5288,-2.5295,-2.5325,-2.539,-2.5394,-2.5399,-2.5436,-2.5446,-2.5454,0,0,0,0,0,0,-2.5201,-2.5207,-2.5196,-2.5243,-2.5255,-2.5262,-2.5288,-2.5274,-2.5293,-2.5289,-2.5278,-2.528,-2.5323,-2.5328,-2.5302,-2.5378,-2.5347,-2.5353,-2.5373,-2.5382,-2.539,-2.5387,-2.5268,0,0,0,0,0,-2.5214,-2.5239,-2.5243,-2.5285,-2.5291,-2.5289,-2.5302,-2.5294,-2.5307,-2.5312,-2.5316,-2.5329,-2.5352,-2.5367,-2.5389,-2.544,-2.5442,-2.5464,-2.5471,-2.5478,-2.5483,-2.551,-2.552,-2.5416,-2.5416,-2.5416,0,0,-2.5243,-2.525,-2.5266,-2.5292,-2.5301,-2.5327,-2.5293,-2.5322,-2.5341,-2.5316,-2.5354,-2.5358,-2.5372,-2.5418,-2.5438,-2.5423,-2.5512,-2.5483,-2.5488,-2.549,-2.5516,-2.5526,-2.5535,-2.5419,-2.5418,-2.5418,0,0,-2.5308,-2.5316,-2.5351,-2.536,-2.5373,-2.5371,-2.538,-2.5389,-2.5391,-2.5429,-2.5411,-2.5434,-2.5474,-2.5484,-2.5494,-2.5564,-2.5549,-2.5572,-2.5611,-2.5637,-2.5646,-2.5653,-2.5678,-2.5687,-2.5577,-2.5577,-2.5577,0,-2.5342,-2.5381,-2.5371,-2.5401,-2.5413,-2.5392,-2.5427,-2.5437,-2.5457,-2.5466,-2.5448,-2.5498,-2.5506,-2.5554,-2.5571,-2.558,-2.559,-2.557,-2.5645,-2.5652,-2.5659,-2.5682,-2.5692,-2.558,-2.558,-2.5579,-2.5579,0,-2.5422,-2.5449,-2.5475,-2.5495,-2.551,-2.5543,-2.5538,-2.5555,-2.5547,-2.5547,-2.5586,-2.5594,-2.5617,-2.5628,-2.562,-2.5675,-2.5665,-2.5647,-2.5616,-2.5672,-2.5693,-2.5702,-2.5584,-2.5583,-2.5582,-2.5581,0,0,-2.5511,-2.5525,-2.5535,-2.5543,-2.5556,-2.5577,-2.5609,-2.5631,-2.5646,-2.566,-2.5687,-2.5722,-2.5705,-2.5717,-2.571,-2.5733,-2.5788,-2.5712,-2.5712,-2.5726,-2.5849,-2.5863,-2.5873,-2.5778,-2.578,-2.5781,-2.5848,0,-2.5576,-2.5631,-2.5624,-2.5677,-2.5701,-2.5682,-2.5709,-2.5721,-2.5722,-2.5743,-2.5744,-2.5769,-2.5745,-2.5752,-2.5775,-2.5777,-2.5813,-2.5772,-2.5803,-2.5804,-2.58,-2.5884,-2.5899,-2.5961,-2.5856,-2.5858,-2.5859,0,-2.566,-2.5677,-2.5733,-2.5742,-2.5752,-2.5777,-2.5797,-2.5818,-2.583,-2.5829,-2.5843,-2.5832,-2.5864,-2.5833,-2.5877,-2.585,-2.5862,-2.5865,-2.5867,-2.5869,-2.5835,-2.5889,-2.5981,-2.599,-2.5872,-2.5871,-2.587,0,-2.5719,-2.5756,-2.5794,-2.5802,-2.5814,-2.5832,-2.5838,-2.5849,-2.5863,-2.588,-2.5889,-2.591,-2.5922,-2.5938,-2.5933,-2.5911,-2.5979,-2.5947,-2.5979,-2.5979,-2.5994,-2.5993,-2.6089,-2.6002,-2.6002,-2.6002,-2.6002,0,-2.5793,-2.5827,-2.5821,-2.5844,-2.5883,-2.5874,-2.5912,-2.5916,-2.5925,-2.5949,-2.5934,-2.5956,-2.5948,-2.5971,-2.5967,-2.6004,-2.601,-2.601,-2.6009,-2.6011,-2.6011,-2.6019,-2.6014,-2.6005,-2.6004,-2.6004,-2.6003,0,-2.5865,-2.5862,-2.5902,-2.591,-2.5913,-2.5941,-2.5948,-2.597,-2.597,-2.6001,-2.6007,-2.6007,-2.6033,-2.6029,-2.6058,-2.6056,-2.6102,-2.6095,-2.6098,-2.6096,-2.6128,-2.6125,-2.6232,-2.6245,-2.6151,-2.6152,-2.6152,0,-2.5912,-2.5938,-2.5949,-2.5964,-2.5971,-2.5995,-2.6009,-2.6001,-2.6016,-2.6033,-2.6053,-2.6077,-2.6096,-2.6138,-2.6141,-2.6163,-2.6156,-2.6192,-2.6159,-2.6161,-2.6156,-2.6155,-2.6157,-2.6199,-2.62,-2.6201,-2.6201,0,-2.5995,-2.5993,-2.6013,-2.6034,-2.6051,-2.6066,-2.608,-2.6093,-2.6087,-2.6105,-2.6131,-2.6146,-2.6175,-2.6199,-2.622,-2.6226,-2.6213,-2.6212,-2.622,-2.6223,-2.6223,-2.6223,-2.6115,-2.6209,-2.6208,-2.6208,-2.6207,-2.6207,-2.6056,-2.6079,-2.609,-2.6113,-2.6123,-2.6137,-2.6158,-2.616,-2.6181,-2.6204,-2.6199,-2.6228,-2.624,-2.6267,-2.6275,-2.6298,-2.6285,-2.6297,-2.63,-2.6303,-2.6307,-2.622,-2.6302,-2.6302,-2.6302,-2.6301,-2.6301,0,-2.6139,-2.6145,-2.6167,-2.6187,-2.6205,-2.6191,-2.6206,-2.6222,-2.6248,-2.6261,-2.628,-2.6309,-2.6333,-2.6338,-2.636,-2.6378,-2.6372,-2.6384,-2.6382,-2.6384,-2.6318,-2.6308,-2.6388,-2.6388,-2.6388,-2.6388,-2.6388,-2.6388,-2.6184,-2.622,-2.6219,-2.6261,-2.6267,-2.6295,-2.6305,-2.6318,-2.6327,-2.6361,-2.6381,-2.6384,-2.6393,-2.6416,-2.6437,-2.6438,-2.6447,-2.6461,-2.6459,-2.6397,-2.6388,-2.638,-2.6371,-2.6463,-2.6463,-2.6523,-2.6524,-2.6524]}]]